This is the latest recevied weather packets stored in our database for station/object KY4GW. If no packets are shown the sender has not sent any weather packets the latest 10 day(s).
| Time | Temp. | Humidity | Pressure | Rain* | Wind** | Luminosity | Snow |
|---|---|---|---|---|---|---|---|
| 1777650603 | 13.89° C | 64% | 1016.9 hPa | 0 mm | - | 257 W/m² | - |
| 1777650301 | 13.89° C | 60% | 1016.6 hPa | 0 mm | - | 222 W/m² | - |
| 1777649997 | 14.44° C | 61% | 1016.6 hPa | 0 mm | - | 225 W/m² | - |
| 1777649695 | 14.44° C | 61% | 1016.6 hPa | 0 mm | - | 240 W/m² | - |
| 1777649390 | 14.44° C | 57% | 1016.2 hPa | 0 mm | - | 254 W/m² | - |
| 1777649088 | 14.44° C | 58% | 1016.2 hPa | 0 mm | - | 275 W/m² | - |
| 1777648785 | 13.89° C | 57% | 1016.2 hPa | 0 mm | - | 223 W/m² | - |
| 1777648482 | 13.89° C | 55% | 1016.2 hPa | 0 mm | - | 211 W/m² | - |
| 1777648179 | 13.89° C | 57% | 1016.2 hPa | 0 mm | - | 204 W/m² | - |
| 1777647874 | 13.89° C | 57% | 1016.2 hPa | 0 mm | - | 150 W/m² | - |
| 1777647571 | 14.44° C | 56% | 1015.8 hPa | 0 mm | - | 175 W/m² | - |
| 1777647267 | 15.56° C | 54% | 1015.8 hPa | 0 mm | - | 200 W/m² | - |
| 1777646965 | 15.56° C | 54% | 1015.8 hPa | 0 mm | - | 477 W/m² | - |
| 1777646661 | 15.56° C | 57% | 1015.5 hPa | 0 mm | - | 322 W/m² | - |
| 1777646357 | 16.67° C | 51% | 1015.5 hPa | 0 mm | - | 313 W/m² | - |
| 1777646053 | 17.22° C | 53% | 1015.5 hPa | 0 mm | - | 687 W/m² | - |
| 1777645750 | 17.22° C | 52% | 1015.8 hPa | 0 mm | - | 704 W/m² | - |
| 1777645447 | 17.22° C | 49% | 1015.8 hPa | 0 mm | - | 648 W/m² | - |
| 1777645143 | 16.67° C | 55% | 1015.8 hPa | 0 mm | - | 605 W/m² | - |
| 1777644839 | 16.67° C | 52% | 1015.8 hPa | 0 mm | - | 565 W/m² | - |
| 1777644537 | 15.56° C | 57% | 1015.8 hPa | 0 mm | - | 561 W/m² | - |
| 1777644233 | 15° C | 58% | 1015.8 hPa | 0 mm | - | 193 W/m² | - |
| 1777643930 | 15.56° C | 58% | 1015.8 hPa | 0 mm | - | 547 W/m² | - |
| 1777643627 | 15.56° C | 59% | 1015.8 hPa | 0 mm | - | 224 W/m² | - |
| 1777643324 | 14.44° C | 60% | 1015.8 hPa | 0 mm | - | 247 W/m² | - |
* Rain latest hour (hover to see other rain measurements)
** Current wind speed in m/s (hover to see current wind gust speed)